Location: ???? ???? ?????
(31.2680°N, 31.7283°E)
Time: 19:48:46
(UTC+00:00)

USA 215 - Pass Details

Date: 13 July 2020
Orbit: 1102 x 1106 km, 123.0° (Epoch: 31 July)

Event Time Altitude Azimuth Distance (km) Brightness Sun altitude
Rises 18:41:54 0° 52° (NE) 3,918 6.1 -19.1°
Reaches altitude 10° 18:44:40 10° 62° (ENE) 2,958 5.3 -19.5°
Maximum altitude 18:50:28 34° 125° (SE) 1,728 3.7 -20.4°
Enters shadow 18:50:31 34° 126° (SE) 1,728 3.7 -20.4°
